Year,Month,Day,Hour,Minute,Value (Times are PST for temperature in C)
2020,08,17,00,00,21.00
2020,08,17,00,01,21.00
2020,08,17,00,02,21.00
2020,08,17,00,03,21.00
2020,08,17,00,04,21.00
2020,08,17,00,05,20.90
2020,08,17,00,06,20.90
2020,08,17,00,07,20.90
2020,08,17,00,08,20.90
2020,08,17,00,09,20.90
2020,08,17,00,10,20.90
2020,08,17,00,11,20.90
2020,08,17,00,12,20.90
2020,08,17,00,13,20.90
2020,08,17,00,14,20.90
2020,08,17,00,15,20.90
2020,08,17,00,16,20.80
2020,08,17,00,17,20.90
2020,08,17,00,18,20.90
2020,08,17,00,19,20.90
2020,08,17,00,20,20.90
2020,08,17,00,21,20.90
2020,08,17,00,22,20.90
2020,08,17,00,23,20.90
2020,08,17,00,24,20.90
2020,08,17,00,25,20.90
2020,08,17,00,26,20.90
2020,08,17,00,27,20.90
2020,08,17,00,28,20.90
2020,08,17,00,29,20.90
2020,08,17,00,30,20.90
2020,08,17,00,31,20.90
2020,08,17,00,32,20.90
2020,08,17,00,33,20.90
2020,08,17,00,34,20.80
2020,08,17,00,35,20.80
2020,08,17,00,36,20.80
2020,08,17,00,37,20.80
2020,08,17,00,38,20.80
2020,08,17,00,39,20.80
2020,08,17,00,40,20.70
2020,08,17,00,41,20.70
2020,08,17,00,42,20.70
2020,08,17,00,43,20.70
2020,08,17,00,44,20.70
2020,08,17,00,45,20.60
2020,08,17,00,46,20.60
2020,08,17,00,47,20.60
2020,08,17,00,48,20.60
2020,08,17,00,49,20.60
2020,08,17,00,50,20.60
2020,08,17,00,51,20.60
2020,08,17,00,52,20.60
2020,08,17,00,53,20.60
2020,08,17,00,54,20.60
2020,08,17,00,55,20.70
2020,08,17,00,56,20.70
2020,08,17,00,57,20.70
2020,08,17,00,58,20.70
2020,08,17,00,59,20.70
2020,08,17,01,00,20.70
2020,08,17,01,01,20.70
2020,08,17,01,02,20.80
2020,08,17,01,03,20.80
2020,08,17,01,04,20.80
2020,08,17,01,05,20.80
2020,08,17,01,06,20.90
2020,08,17,01,07,20.90
2020,08,17,01,08,20.90
2020,08,17,01,09,20.90
2020,08,17,01,10,20.90
2020,08,17,01,11,20.90
2020,08,17,01,12,20.90
2020,08,17,01,13,20.90
2020,08,17,01,14,20.90
2020,08,17,01,15,20.90
2020,08,17,01,16,20.90
2020,08,17,01,17,20.90
2020,08,17,01,18,20.90
2020,08,17,01,19,20.90
2020,08,17,01,20,20.90
2020,08,17,01,21,20.90
2020,08,17,01,22,20.90
2020,08,17,01,23,20.90
2020,08,17,01,24,20.90
2020,08,17,01,25,20.90
2020,08,17,01,26,20.90
2020,08,17,01,27,20.90
2020,08,17,01,28,20.80
2020,08,17,01,29,20.80
2020,08,17,01,30,20.80
2020,08,17,01,31,20.80
2020,08,17,01,32,20.80
2020,08,17,01,33,20.80
2020,08,17,01,34,20.80
2020,08,17,01,35,20.80
2020,08,17,01,36,20.80
2020,08,17,01,37,20.80
2020,08,17,01,38,20.80
2020,08,17,01,39,20.80
2020,08,17,01,40,20.80
2020,08,17,01,41,20.80
2020,08,17,01,42,20.80
2020,08,17,01,43,20.80
2020,08,17,01,44,20.80
2020,08,17,01,45,20.80
2020,08,17,01,46,20.80
2020,08,17,01,47,20.80
2020,08,17,01,48,20.70
2020,08,17,01,49,20.70
2020,08,17,01,50,20.70
2020,08,17,01,51,20.70
2020,08,17,01,52,20.70
2020,08,17,01,53,20.70
2020,08,17,01,54,20.70
2020,08,17,01,55,20.70
2020,08,17,01,56,20.70
2020,08,17,01,57,20.80
2020,08,17,01,58,20.80
2020,08,17,01,59,20.80
2020,08,17,02,00,20.80
2020,08,17,02,01,20.80
2020,08,17,02,02,20.80
2020,08,17,02,03,20.70
2020,08,17,02,04,20.70
2020,08,17,02,05,20.70
2020,08,17,02,06,20.70
2020,08,17,02,07,20.70
2020,08,17,02,08,20.60
2020,08,17,02,09,20.60
2020,08,17,02,10,20.60
2020,08,17,02,11,20.60
2020,08,17,02,12,20.60
2020,08,17,02,13,20.50
2020,08,17,02,14,20.50
2020,08,17,02,15,20.50
2020,08,17,02,16,20.50
2020,08,17,02,17,20.50
2020,08,17,02,18,20.50
2020,08,17,02,19,20.50
2020,08,17,02,20,20.40
2020,08,17,02,21,20.40
2020,08,17,02,22,20.40
2020,08,17,02,23,20.40
2020,08,17,02,24,20.30
2020,08,17,02,25,20.30
2020,08,17,02,26,20.30
2020,08,17,02,27,20.30
2020,08,17,02,28,20.30
2020,08,17,02,29,20.20
2020,08,17,02,30,20.20
2020,08,17,02,31,20.20
2020,08,17,02,32,20.20
2020,08,17,02,33,20.20
2020,08,17,02,34,20.20
2020,08,17,02,35,20.20
2020,08,17,02,36,20.10
2020,08,17,02,37,20.10
2020,08,17,02,38,20.10
2020,08,17,02,39,20.10
2020,08,17,02,40,20.10
2020,08,17,02,41,20.00
2020,08,17,02,42,20.00
2020,08,17,02,43,19.90
2020,08,17,02,44,19.90
2020,08,17,02,45,19.90
2020,08,17,02,46,19.90
2020,08,17,02,47,19.80
2020,08,17,02,48,19.80
2020,08,17,02,49,19.80
2020,08,17,02,50,19.80
2020,08,17,02,51,19.70
2020,08,17,02,52,19.70
2020,08,17,02,53,19.70
2020,08,17,02,54,19.70
2020,08,17,02,55,19.70
2020,08,17,02,56,19.60
2020,08,17,02,57,19.60
2020,08,17,02,58,19.50
2020,08,17,02,59,19.50
2020,08,17,03,00,19.40
2020,08,17,03,01,19.40
2020,08,17,03,02,19.30
2020,08,17,03,03,19.30
2020,08,17,03,04,19.30
2020,08,17,03,05,19.30
2020,08,17,03,06,19.30
2020,08,17,03,07,19.30
2020,08,17,03,08,19.20
2020,08,17,03,09,19.20
2020,08,17,03,10,19.20
2020,08,17,03,11,19.20
2020,08,17,03,12,19.10
2020,08,17,03,13,19.10
2020,08,17,03,14,19.10
2020,08,17,03,15,19.10
2020,08,17,03,16,19.10
2020,08,17,03,17,19.10
2020,08,17,03,18,19.10
2020,08,17,03,19,19.00
2020,08,17,03,20,19.00
2020,08,17,03,21,18.90
2020,08,17,03,22,18.90
2020,08,17,03,23,18.90
2020,08,17,03,24,18.90
2020,08,17,03,25,18.80
2020,08,17,03,26,18.80
2020,08,17,03,27,18.80
2020,08,17,03,28,18.80
2020,08,17,03,29,18.80
2020,08,17,03,30,18.70
2020,08,17,03,31,18.70
2020,08,17,03,32,18.70
2020,08,17,03,33,18.70
2020,08,17,03,34,18.60
2020,08,17,03,35,18.60
2020,08,17,03,36,18.60
2020,08,17,03,37,18.60
2020,08,17,03,38,18.50
2020,08,17,03,39,18.50
2020,08,17,03,40,18.50
2020,08,17,03,41,18.40
2020,08,17,03,42,18.40
2020,08,17,03,43,18.40
2020,08,17,03,44,18.40
2020,08,17,03,45,18.40
2020,08,17,03,46,18.30
2020,08,17,03,47,18.30
2020,08,17,03,48,18.30
2020,08,17,03,49,18.30
2020,08,17,03,50,18.30
2020,08,17,03,51,18.30
2020,08,17,03,52,18.30
2020,08,17,03,53,18.30
2020,08,17,03,54,18.30
2020,08,17,03,55,18.30
2020,08,17,03,56,18.30
2020,08,17,03,57,18.30
2020,08,17,03,58,18.40
2020,08,17,03,59,18.40
2020,08,17,04,00,18.40
2020,08,17,04,01,18.40
2020,08,17,04,02,18.40
2020,08,17,04,03,18.40
2020,08,17,04,04,18.40
2020,08,17,04,05,18.40
2020,08,17,04,06,18.40
2020,08,17,04,07,18.40
2020,08,17,04,08,18.40
2020,08,17,04,09,18.40
2020,08,17,04,10,18.40
2020,08,17,04,11,18.40
2020,08,17,04,12,18.30
2020,08,17,04,13,18.30
2020,08,17,04,14,18.30
2020,08,17,04,15,18.30
2020,08,17,04,16,18.30
2020,08,17,04,17,18.30
2020,08,17,04,18,18.20
2020,08,17,04,19,18.20
2020,08,17,04,20,18.20
2020,08,17,04,21,18.20
2020,08,17,04,22,18.20
2020,08,17,04,23,18.20
2020,08,17,04,24,18.20
2020,08,17,04,25,18.10
2020,08,17,04,26,18.10
2020,08,17,04,27,18.10
2020,08,17,04,28,18.10
2020,08,17,04,29,18.10
2020,08,17,04,30,18.10
2020,08,17,04,31,18.10
2020,08,17,04,32,18.10
2020,08,17,04,33,18.10
2020,08,17,04,34,18.00
2020,08,17,04,35,18.00
2020,08,17,04,36,18.00
2020,08,17,04,37,18.00
2020,08,17,04,38,18.10
2020,08,17,04,39,18.10
2020,08,17,04,40,18.10
2020,08,17,04,41,18.10
2020,08,17,04,42,18.10
2020,08,17,04,43,18.20
2020,08,17,04,44,18.20
2020,08,17,04,45,18.20
2020,08,17,04,46,18.20
2020,08,17,04,47,18.20
2020,08,17,04,48,18.20
2020,08,17,04,49,18.20
2020,08,17,04,50,18.10
2020,08,17,04,51,18.10
2020,08,17,04,52,18.10
2020,08,17,04,53,18.10
2020,08,17,04,54,18.10
2020,08,17,04,55,18.10
2020,08,17,04,56,18.10
2020,08,17,04,57,18.10
2020,08,17,04,58,18.10
2020,08,17,04,59,18.10
2020,08,17,05,00,18.10
2020,08,17,05,01,18.10
2020,08,17,05,02,18.10
2020,08,17,05,03,18.10
2020,08,17,05,04,18.10
2020,08,17,05,05,18.10
2020,08,17,05,06,18.10
2020,08,17,05,07,18.10
2020,08,17,05,08,18.10
2020,08,17,05,09,18.10
2020,08,17,05,10,18.10
2020,08,17,05,11,18.00
2020,08,17,05,12,18.10
2020,08,17,05,13,18.10
2020,08,17,05,14,18.00
2020,08,17,05,15,18.00
2020,08,17,05,16,18.00
2020,08,17,05,17,18.10
2020,08,17,05,18,18.10
2020,08,17,05,19,18.10
2020,08,17,05,20,18.10
2020,08,17,05,21,18.10
2020,08,17,05,22,18.10
2020,08,17,05,23,18.10
2020,08,17,05,24,18.10
2020,08,17,05,25,18.10
2020,08,17,05,26,18.10
2020,08,17,05,27,18.10
2020,08,17,05,28,18.10
2020,08,17,05,29,18.10
2020,08,17,05,30,18.00
2020,08,17,05,31,18.00
2020,08,17,05,32,18.00
2020,08,17,05,33,18.00
2020,08,17,05,34,18.00
2020,08,17,05,35,17.90
2020,08,17,05,36,17.90
2020,08,17,05,37,17.90
2020,08,17,05,38,17.90
2020,08,17,05,39,17.90
2020,08,17,05,40,17.90
2020,08,17,05,41,17.80
2020,08,17,05,42,17.80
2020,08,17,05,43,17.80
2020,08,17,05,44,17.80
2020,08,17,05,45,17.80
2020,08,17,05,46,17.80
2020,08,17,05,47,17.80
2020,08,17,05,48,17.80
2020,08,17,05,49,17.70
2020,08,17,05,50,17.70
2020,08,17,05,51,17.70
2020,08,17,05,52,17.70
2020,08,17,05,53,17.70
2020,08,17,05,54,17.70
2020,08,17,05,55,17.70
2020,08,17,05,56,17.60
2020,08,17,05,57,17.60
2020,08,17,05,58,17.60
2020,08,17,05,59,17.60
2020,08,17,06,00,17.60
2020,08,17,06,01,17.60
2020,08,17,06,02,17.60
2020,08,17,06,03,17.60
2020,08,17,06,04,17.60
2020,08,17,06,05,17.60
2020,08,17,06,06,17.60
2020,08,17,06,07,17.60
2020,08,17,06,08,17.60
2020,08,17,06,09,17.60
2020,08,17,06,10,17.60
2020,08,17,06,11,17.60
2020,08,17,06,12,17.60
2020,08,17,06,13,17.60
2020,08,17,06,14,17.50
2020,08,17,06,15,17.50
2020,08,17,06,16,17.50
2020,08,17,06,17,17.50
2020,08,17,06,18,17.40
2020,08,17,06,19,17.40
2020,08,17,06,20,17.40
2020,08,17,06,21,17.40
2020,08,17,06,22,17.40
2020,08,17,06,23,17.40
2020,08,17,06,24,17.30
2020,08,17,06,25,17.30
2020,08,17,06,26,17.30
2020,08,17,06,27,17.30
2020,08,17,06,28,17.30
2020,08,17,06,29,17.30
2020,08,17,06,30,17.30
2020,08,17,06,31,17.30
2020,08,17,06,32,17.30
2020,08,17,06,33,17.20
2020,08,17,06,34,17.20
2020,08,17,06,35,17.20
2020,08,17,06,36,17.20
2020,08,17,06,37,17.20
2020,08,17,06,38,17.20
2020,08,17,06,39,17.10
2020,08,17,06,40,17.10
2020,08,17,06,41,17.10
2020,08,17,06,42,17.10
2020,08,17,06,43,17.10
2020,08,17,06,44,17.10
2020,08,17,06,45,17.10
2020,08,17,06,46,17.00
2020,08,17,06,47,17.00
2020,08,17,06,48,17.00
2020,08,17,06,49,17.00
2020,08,17,06,50,17.00
2020,08,17,06,51,17.00
2020,08,17,06,52,17.00
2020,08,17,06,53,16.90
2020,08,17,06,54,16.90
2020,08,17,06,55,16.90
2020,08,17,06,56,16.90
2020,08,17,06,57,16.90
2020,08,17,06,58,16.80
2020,08,17,06,59,16.80
2020,08,17,07,00,16.80
2020,08,17,07,01,16.80
2020,08,17,07,02,16.70
2020,08,17,07,03,16.70
2020,08,17,07,04,16.70
2020,08,17,07,05,16.70
2020,08,17,07,06,16.70
2020,08,17,07,07,16.70
2020,08,17,07,08,16.70
2020,08,17,07,09,16.70
2020,08,17,07,10,16.70
2020,08,17,07,11,16.70
2020,08,17,07,12,16.70
2020,08,17,07,13,16.70
2020,08,17,07,14,16.70
2020,08,17,07,15,16.70
2020,08,17,07,16,16.60
2020,08,17,07,17,16.60
2020,08,17,07,18,16.60
2020,08,17,07,19,16.60
2020,08,17,07,20,16.60
2020,08,17,07,21,16.70
2020,08,17,07,22,16.70
2020,08,17,07,23,16.70
2020,08,17,07,24,16.70
2020,08,17,07,25,16.70
2020,08,17,07,26,16.70
2020,08,17,07,27,16.80
2020,08,17,07,28,16.80
2020,08,17,07,29,16.80
2020,08,17,07,30,16.80
2020,08,17,07,31,16.80
2020,08,17,07,32,16.90
2020,08,17,07,33,16.90
2020,08,17,07,34,16.90
2020,08,17,07,35,16.90
2020,08,17,07,36,17.00
2020,08,17,07,37,17.00
2020,08,17,07,38,17.10
2020,08,17,07,39,17.10
2020,08,17,07,40,17.10
2020,08,17,07,41,17.20
2020,08,17,07,42,17.20
2020,08,17,07,43,17.20
2020,08,17,07,44,17.30
2020,08,17,07,45,17.30
2020,08,17,07,46,17.30
2020,08,17,07,47,17.30
2020,08,17,07,48,17.30
2020,08,17,07,49,17.30
2020,08,17,07,50,17.30
2020,08,17,07,51,17.40
2020,08,17,07,52,17.40
2020,08,17,07,53,17.40
2020,08,17,07,54,17.40
2020,08,17,07,55,17.50
2020,08,17,07,56,17.50
2020,08,17,07,57,17.50
2020,08,17,07,58,17.50
2020,08,17,07,59,17.60
2020,08,17,08,00,17.60
2020,08,17,08,01,17.60
2020,08,17,08,02,17.60
2020,08,17,08,03,17.60
2020,08,17,08,04,17.70
2020,08,17,08,05,17.70
2020,08,17,08,06,17.70
2020,08,17,08,07,17.70
2020,08,17,08,08,17.70
2020,08,17,08,09,17.80
2020,08,17,08,10,17.80
2020,08,17,08,11,17.80
2020,08,17,08,12,17.80
2020,08,17,08,13,17.80
2020,08,17,08,14,17.80
2020,08,17,08,15,17.90
2020,08,17,08,16,17.90
2020,08,17,08,17,17.90
2020,08,17,08,18,17.90
2020,08,17,08,19,17.90
2020,08,17,08,20,18.00
2020,08,17,08,21,18.00
2020,08,17,08,22,18.00
2020,08,17,08,23,18.10
2020,08,17,08,24,18.10
2020,08,17,08,25,18.10
2020,08,17,08,26,18.10
2020,08,17,08,27,18.10
2020,08,17,08,28,18.20
2020,08,17,08,29,18.20
2020,08,17,08,30,18.20
2020,08,17,08,31,18.20
2020,08,17,08,32,18.30
2020,08,17,08,33,18.30
2020,08,17,08,34,18.30
2020,08,17,08,35,18.30
2020,08,17,08,36,18.40
2020,08,17,08,37,18.40
2020,08,17,08,38,18.50
2020,08,17,08,39,18.50
2020,08,17,08,40,18.50
2020,08,17,08,41,18.60
2020,08,17,08,42,18.60
2020,08,17,08,43,18.60
2020,08,17,08,44,18.70
2020,08,17,08,45,18.70
2020,08,17,08,46,18.70
2020,08,17,08,47,18.70
2020,08,17,08,48,18.70
2020,08,17,08,49,18.80
2020,08,17,08,50,18.80
2020,08,17,08,51,18.80
2020,08,17,08,52,18.80
2020,08,17,08,53,18.90
2020,08,17,08,54,18.90
2020,08,17,08,55,18.90
2020,08,17,08,56,18.90
2020,08,17,08,57,19.00
2020,08,17,08,58,19.00
2020,08,17,08,59,19.10
2020,08,17,09,00,19.10
2020,08,17,09,01,19.10
2020,08,17,09,02,19.10
2020,08,17,09,03,19.10
2020,08,17,09,04,19.20
2020,08,17,09,05,19.10
2020,08,17,09,06,19.10
2020,08,17,09,07,19.10
2020,08,17,09,08,19.20
2020,08,17,09,09,19.20
2020,08,17,09,10,19.20
2020,08,17,09,11,19.20
2020,08,17,09,12,19.20
2020,08,17,09,13,19.30
2020,08,17,09,14,19.30
2020,08,17,09,15,19.30
2020,08,17,09,16,19.40
2020,08,17,09,17,19.40
2020,08,17,09,18,19.50
2020,08,17,09,19,19.50
2020,08,17,09,20,19.60
2020,08,17,09,21,19.60
2020,08,17,09,22,19.70
2020,08,17,09,23,19.70
2020,08,17,09,24,19.70
2020,08,17,09,25,19.80
2020,08,17,09,26,19.80
2020,08,17,09,27,19.80
2020,08,17,09,28,19.90
2020,08,17,09,29,19.90
2020,08,17,09,30,19.90
2020,08,17,09,31,20.00
2020,08,17,09,32,20.10
2020,08,17,09,33,20.10
2020,08,17,09,34,20.20
2020,08,17,09,35,20.20
2020,08,17,09,36,20.30
2020,08,17,09,37,20.30
2020,08,17,09,38,20.40
2020,08,17,09,39,20.40
2020,08,17,09,40,20.50
2020,08,17,09,41,20.50
2020,08,17,09,42,20.60
2020,08,17,09,43,20.70
2020,08,17,09,44,20.70
2020,08,17,09,45,20.70
2020,08,17,09,46,20.80
2020,08,17,09,47,20.80
2020,08,17,09,48,20.90
2020,08,17,09,49,20.90
2020,08,17,09,50,20.80
2020,08,17,09,51,20.80
2020,08,17,09,52,20.80
2020,08,17,09,53,20.80
2020,08,17,09,54,20.80
2020,08,17,09,55,20.80
2020,08,17,09,56,20.70
2020,08,17,09,57,20.70
2020,08,17,09,58,20.70
2020,08,17,09,59,20.70
2020,08,17,10,00,20.70
2020,08,17,10,01,20.70
2020,08,17,10,02,20.70
2020,08,17,10,03,20.70
2020,08,17,10,04,20.70
2020,08,17,10,05,20.70
2020,08,17,10,06,20.80
2020,08,17,10,07,20.80
2020,08,17,10,08,20.80
2020,08,17,10,09,20.80
2020,08,17,10,10,20.90
2020,08,17,10,11,21.00
2020,08,17,10,12,21.00
2020,08,17,10,13,21.20
2020,08,17,10,14,21.20
2020,08,17,10,15,21.30
2020,08,17,10,16,21.40
2020,08,17,10,17,21.40
2020,08,17,10,18,21.50
2020,08,17,10,19,21.50
2020,08,17,10,20,21.50
2020,08,17,10,21,21.60
2020,08,17,10,22,21.80
2020,08,17,10,23,21.80
2020,08,17,10,24,21.80
2020,08,17,10,25,21.90
2020,08,17,10,26,21.90
2020,08,17,10,27,22.00
2020,08,17,10,28,22.00
2020,08,17,10,29,22.10
2020,08,17,10,30,22.10
2020,08,17,10,31,22.10
2020,08,17,10,32,22.20
2020,08,17,10,33,22.20
2020,08,17,10,34,22.20
2020,08,17,10,35,22.30
2020,08,17,10,36,22.40
2020,08,17,10,37,22.50
2020,08,17,10,38,22.50
2020,08,17,10,39,22.60
2020,08,17,10,40,22.70
2020,08,17,10,41,22.70
2020,08,17,10,42,22.80
2020,08,17,10,43,22.80
2020,08,17,10,44,22.80
2020,08,17,10,45,22.80
2020,08,17,10,46,22.80
2020,08,17,10,47,22.80
2020,08,17,10,48,22.80
2020,08,17,10,49,22.90
2020,08,17,10,50,23.00
2020,08,17,10,51,23.10
2020,08,17,10,52,23.20
2020,08,17,10,53,23.20
2020,08,17,10,54,23.30
2020,08,17,10,55,23.30
2020,08,17,10,56,23.30
2020,08,17,10,57,23.30
2020,08,17,10,58,23.30
2020,08,17,10,59,23.30
2020,08,17,11,00,23.30
2020,08,17,11,01,23.20
2020,08,17,11,02,23.20
2020,08,17,11,03,23.10
2020,08,17,11,04,23.10
2020,08,17,11,05,23.20
2020,08,17,11,06,23.20
2020,08,17,11,07,23.30
2020,08,17,11,08,23.40
2020,08,17,11,09,23.40
2020,08,17,11,10,23.40
2020,08,17,11,11,23.50
2020,08,17,11,12,23.50
2020,08,17,11,13,23.60
2020,08,17,11,14,23.60
2020,08,17,11,15,23.60
2020,08,17,11,16,23.60
2020,08,17,11,17,23.60
2020,08,17,11,18,23.60
2020,08,17,11,19,23.60
2020,08,17,11,20,23.70
2020,08,17,11,21,23.70
2020,08,17,11,22,23.80
2020,08,17,11,23,23.80
2020,08,17,11,24,23.80
2020,08,17,11,25,23.80
2020,08,17,11,26,23.80
2020,08,17,11,27,23.80
2020,08,17,11,28,23.80
2020,08,17,11,29,23.80
2020,08,17,11,30,23.80
2020,08,17,11,31,23.90
2020,08,17,11,32,23.90
2020,08,17,11,33,24.10
2020,08,17,11,34,24.10
2020,08,17,11,35,24.10
2020,08,17,11,36,24.00
2020,08,17,11,37,24.00
2020,08,17,11,38,24.10
2020,08,17,11,39,24.10
2020,08,17,11,40,24.10
2020,08,17,11,41,24.10
2020,08,17,11,42,24.20
2020,08,17,11,43,24.20
2020,08,17,11,44,24.30
2020,08,17,11,45,24.30
2020,08,17,11,46,24.30
2020,08,17,11,47,24.30
2020,08,17,11,48,24.40
2020,08,17,11,49,24.40
2020,08,17,11,50,24.40
2020,08,17,11,51,24.30
2020,08,17,11,52,24.40
2020,08,17,11,53,24.50
2020,08,17,11,54,24.60
2020,08,17,11,55,24.60
2020,08,17,11,56,24.70
2020,08,17,11,57,24.80
2020,08,17,11,58,25.00
2020,08,17,11,59,25.10
2020,08,17,12,00,25.10
2020,08,17,12,01,25.20
2020,08,17,12,02,25.30
2020,08,17,12,03,25.40
2020,08,17,12,04,25.50
2020,08,17,12,05,25.60
2020,08,17,12,06,25.60
2020,08,17,12,07,25.70
2020,08,17,12,08,25.70
2020,08,17,12,09,25.80
2020,08,17,12,10,25.80
2020,08,17,12,11,25.80
2020,08,17,12,12,25.80
2020,08,17,12,13,25.90
2020,08,17,12,14,25.90
2020,08,17,12,15,25.80
2020,08,17,12,16,25.90
2020,08,17,12,17,26.00
2020,08,17,12,18,26.10
2020,08,17,12,19,26.20
2020,08,17,12,20,26.30
2020,08,17,12,21,26.30
2020,08,17,12,22,26.40
2020,08,17,12,23,26.50
2020,08,17,12,24,26.50
2020,08,17,12,25,26.60
2020,08,17,12,26,26.70
2020,08,17,12,27,26.70
2020,08,17,12,28,26.60
2020,08,17,12,29,26.60
2020,08,17,12,30,26.60
2020,08,17,12,31,26.60
2020,08,17,12,32,26.60
2020,08,17,12,33,26.70
2020,08,17,12,34,26.70
2020,08,17,12,35,26.70
2020,08,17,12,36,26.70
2020,08,17,12,37,26.80
2020,08,17,12,38,26.80
2020,08,17,12,39,26.90
2020,08,17,12,40,27.10
2020,08,17,12,41,27.10
2020,08,17,12,42,27.30
2020,08,17,12,43,27.30
2020,08,17,12,44,27.50
2020,08,17,12,45,27.50
2020,08,17,12,46,27.50
2020,08,17,12,47,27.50
2020,08,17,12,48,27.40
2020,08,17,12,49,27.30
2020,08,17,12,50,27.30
2020,08,17,12,51,27.30
2020,08,17,12,52,27.40
2020,08,17,12,53,27.40
2020,08,17,12,54,27.50
2020,08,17,12,55,27.60
2020,08,17,12,56,27.70
2020,08,17,12,57,27.80
2020,08,17,12,58,27.90
2020,08,17,12,59,27.90
2020,08,17,13,00,27.90
2020,08,17,13,01,28.00
2020,08,17,13,02,27.90
2020,08,17,13,03,27.90
2020,08,17,13,04,27.80
2020,08,17,13,05,27.80
2020,08,17,13,06,27.80
2020,08,17,13,07,27.90
2020,08,17,13,08,28.00
2020,08,17,13,09,28.10
2020,08,17,13,10,28.20
2020,08,17,13,11,28.30
2020,08,17,13,12,28.30
2020,08,17,13,13,28.40
2020,08,17,13,14,28.50
2020,08,17,13,15,28.60
2020,08,17,13,16,28.70
2020,08,17,13,17,28.70
2020,08,17,13,18,28.80
2020,08,17,13,19,28.80
2020,08,17,13,20,28.90
2020,08,17,13,21,29.00
2020,08,17,13,22,29.10
2020,08,17,13,23,29.20
2020,08,17,13,24,29.40
2020,08,17,13,25,29.40
2020,08,17,13,26,29.30
2020,08,17,13,27,29.20
2020,08,17,13,28,29.20
2020,08,17,13,29,29.20
2020,08,17,13,30,29.20
2020,08,17,13,31,29.30
2020,08,17,13,32,29.40
2020,08,17,13,33,29.50
2020,08,17,13,34,29.50
2020,08,17,13,35,29.50
2020,08,17,13,36,29.40
2020,08,17,13,37,29.40
2020,08,17,13,38,29.40
2020,08,17,13,39,29.50
2020,08,17,13,40,29.60
2020,08,17,13,41,29.60
2020,08,17,13,42,29.70
2020,08,17,13,43,29.70
2020,08,17,13,44,29.80
2020,08,17,13,45,29.80
2020,08,17,13,46,29.90
2020,08,17,13,47,29.90
2020,08,17,13,48,29.90
2020,08,17,13,49,29.90
2020,08,17,13,50,30.00
2020,08,17,13,51,30.10
2020,08,17,13,52,30.10
2020,08,17,13,53,30.10
2020,08,17,13,54,30.00
2020,08,17,13,55,29.80
2020,08,17,13,56,29.80
2020,08,17,13,57,29.70
2020,08,17,13,58,29.80
2020,08,17,13,59,29.70
2020,08,17,14,00,29.70
2020,08,17,14,01,29.70
2020,08,17,14,02,29.70
2020,08,17,14,03,29.70
2020,08,17,14,04,29.60
2020,08,17,14,05,29.50
2020,08,17,14,06,29.50
2020,08,17,14,07,29.30
2020,08,17,14,08,29.30
2020,08,17,14,09,29.40
2020,08,17,14,10,29.50
2020,08,17,14,11,29.50
2020,08,17,14,12,29.50
2020,08,17,14,13,29.50
2020,08,17,14,14,29.60
2020,08,17,14,15,29.60
2020,08,17,14,16,29.70
2020,08,17,14,17,29.70
2020,08,17,14,18,29.70
2020,08,17,14,19,29.60
2020,08,17,14,20,29.70
2020,08,17,14,21,29.70
2020,08,17,14,22,29.80
2020,08,17,14,23,29.90
2020,08,17,14,24,30.00
2020,08,17,14,25,29.90
2020,08,17,14,26,29.80
2020,08,17,14,27,29.80
2020,08,17,14,28,29.80
2020,08,17,14,29,29.70
2020,08,17,14,30,29.70
2020,08,17,14,31,29.50
2020,08,17,14,32,29.40
2020,08,17,14,33,29.40
2020,08,17,14,34,29.40
2020,08,17,14,35,29.50
2020,08,17,14,36,29.50
2020,08,17,14,37,29.40
2020,08,17,14,38,29.30
2020,08,17,14,39,29.40
2020,08,17,14,40,29.50
2020,08,17,14,41,29.50
2020,08,17,14,42,29.40
2020,08,17,14,43,29.30
2020,08,17,14,44,29.30
2020,08,17,14,45,29.40
2020,08,17,14,46,29.40
2020,08,17,14,47,29.50
2020,08,17,14,48,29.60
2020,08,17,14,49,29.60
2020,08,17,14,50,29.70
2020,08,17,14,51,29.60
2020,08,17,14,52,29.50
2020,08,17,14,53,29.50
2020,08,17,14,54,29.40
2020,08,17,14,55,29.50
2020,08,17,14,56,29.50
2020,08,17,14,57,29.50
2020,08,17,14,58,29.60
2020,08,17,14,59,29.60
2020,08,17,15,00,29.50
2020,08,17,15,01,29.40
2020,08,17,15,02,29.20
2020,08,17,15,03,29.20
2020,08,17,15,04,29.20
2020,08,17,15,05,29.20
2020,08,17,15,06,29.10
2020,08,17,15,07,29.00
2020,08,17,15,08,29.00
2020,08,17,15,09,28.90
2020,08,17,15,10,28.90
2020,08,17,15,11,29.00
2020,08,17,15,12,29.00
2020,08,17,15,13,29.00
2020,08,17,15,14,29.00
2020,08,17,15,15,29.10
2020,08,17,15,16,29.10
2020,08,17,15,17,29.20
2020,08,17,15,18,29.20
2020,08,17,15,19,29.20
2020,08,17,15,20,29.20
2020,08,17,15,21,29.20
2020,08,17,15,22,29.30
2020,08,17,15,23,29.30
2020,08,17,15,24,29.40
2020,08,17,15,25,29.50
2020,08,17,15,26,29.60
2020,08,17,15,27,29.70
2020,08,17,15,28,29.70
2020,08,17,15,29,29.60
2020,08,17,15,30,29.60
2020,08,17,15,31,29.60
2020,08,17,15,32,29.60
2020,08,17,15,33,29.60
2020,08,17,15,34,29.70
2020,08,17,15,35,29.80
2020,08,17,15,36,29.80
2020,08,17,15,37,29.80
2020,08,17,15,38,29.80
2020,08,17,15,39,29.80
2020,08,17,15,40,29.70
2020,08,17,15,41,29.70
2020,08,17,15,42,29.60
2020,08,17,15,43,29.60
2020,08,17,15,44,29.60
2020,08,17,15,45,29.60
2020,08,17,15,46,29.60
2020,08,17,15,47,29.60
2020,08,17,15,48,29.70
2020,08,17,15,49,29.70
2020,08,17,15,50,29.70
2020,08,17,15,51,29.70
2020,08,17,15,52,29.70
2020,08,17,15,53,29.70
2020,08,17,15,54,29.60
2020,08,17,15,55,29.50
2020,08,17,15,56,29.50
2020,08,17,15,57,29.40
2020,08,17,15,58,29.30
2020,08,17,15,59,29.30
2020,08,17,16,00,29.30
2020,08,17,16,01,29.30
2020,08,17,16,02,29.20
2020,08,17,16,03,29.20
2020,08,17,16,04,29.10
2020,08,17,16,05,29.10
2020,08,17,16,06,29.00
2020,08,17,16,07,28.90
2020,08,17,16,08,28.90
2020,08,17,16,09,29.00
2020,08,17,16,10,29.00
2020,08,17,16,11,29.00
2020,08,17,16,12,29.00
2020,08,17,16,13,29.00
2020,08,17,16,14,29.00
2020,08,17,16,15,29.00
2020,08,17,16,16,29.00
2020,08,17,16,17,28.90
2020,08,17,16,18,28.90
2020,08,17,16,19,28.90
2020,08,17,16,20,28.90
2020,08,17,16,21,28.90
2020,08,17,16,22,28.80
2020,08,17,16,23,28.70
2020,08,17,16,24,28.70
2020,08,17,16,25,28.60
2020,08,17,16,26,28.50
2020,08,17,16,27,28.40
2020,08,17,16,28,28.30
2020,08,17,16,29,28.30
2020,08,17,16,30,28.30
2020,08,17,16,31,28.40
2020,08,17,16,32,28.40
2020,08,17,16,33,28.40
2020,08,17,16,34,28.50
2020,08,17,16,35,28.50
2020,08,17,16,36,28.50
2020,08,17,16,37,28.50
2020,08,17,16,38,28.50
2020,08,17,16,39,28.50
2020,08,17,16,40,28.40
2020,08,17,16,41,28.40
2020,08,17,16,42,28.40
2020,08,17,16,43,28.30
2020,08,17,16,44,28.30
2020,08,17,16,45,28.30
2020,08,17,16,46,28.30
2020,08,17,16,47,28.20
2020,08,17,16,48,28.20
2020,08,17,16,49,28.30
2020,08,17,16,50,28.30
2020,08,17,16,51,28.40
2020,08,17,16,52,28.40
2020,08,17,16,53,28.50
2020,08,17,16,54,28.60
2020,08,17,16,55,28.60
2020,08,17,16,56,28.70
2020,08,17,16,57,28.80
2020,08,17,16,58,28.90
2020,08,17,16,59,28.90
2020,08,17,17,00,29.00
2020,08,17,17,01,29.00
2020,08,17,17,02,29.10
2020,08,17,17,03,29.10
2020,08,17,17,04,29.10
2020,08,17,17,05,29.00
2020,08,17,17,06,29.00
2020,08,17,17,07,28.90
2020,08,17,17,08,28.80
2020,08,17,17,09,28.80
2020,08,17,17,10,28.80
2020,08,17,17,11,28.80
2020,08,17,17,12,28.70
2020,08,17,17,13,28.70
2020,08,17,17,14,28.70
2020,08,17,17,15,28.70
2020,08,17,17,16,28.70
2020,08,17,17,17,28.70
2020,08,17,17,18,28.70
2020,08,17,17,19,28.70